This is the latest recevied weather packets stored in our database for station/object KO4APQ. If no packets are shown the sender has not sent any weather packets the latest 1 day(s).
| Time | Temp. | Humidity | Pressure | Rain* | Wind** | Luminosity | Snow |
|---|---|---|---|---|---|---|---|
| 1778021382 | 25° C | 36% | 1014.3 hPa | 0 mm | 1.34 m/s, 172° | 89 W/m² | - |
| 1778021079 | 25° C | 35% | 1014.1 hPa | 0 mm | 2.24 m/s, 230° | 106 W/m² | - |
| 1778020776 | 25° C | 35% | 1014.2 hPa | 0 mm | 3.13 m/s, 198° | 113 W/m² | - |
| 1778020473 | 25° C | 36% | 1014 hPa | 0 mm | 0.89 m/s, 215° | 118 W/m² | - |
| 1778020169 | 25.56° C | 35% | 1014.1 hPa | 0 mm | 2.68 m/s, 144° | 125 W/m² | - |
| 1778019866 | 25.56° C | 35% | 1013.9 hPa | 0 mm | 1.79 m/s, 105° | 202 W/m² | - |
| 1778019562 | 25.56° C | 35% | 1014.2 hPa | 0 mm | 2.24 m/s, 160° | 191 W/m² | - |
| 1778019259 | 26.11° C | 34% | 1014 hPa | 0 mm | 2.68 m/s, 158° | 264 W/m² | - |
| 1778018956 | 26.11° C | 34% | 1014.1 hPa | 0 mm | 1.79 m/s, 266° | 296 W/m² | - |
| 1778018653 | 25.56° C | 34% | 1014 hPa | 0 mm | 1.79 m/s, 231° | 311 W/m² | - |
| 1778018351 | 25.56° C | 33% | 1013.7 hPa | 0 mm | 2.24 m/s, 214° | 320 W/m² | - |
| 1778018049 | 26.11° C | 33% | 1014 hPa | 0 mm | 1.79 m/s, 171° | 341 W/m² | - |
| 1778017746 | 26.11° C | 33% | 1014.1 hPa | 0 mm | 3.13 m/s, 234° | 366 W/m² | - |
| 1778017444 | 26.11° C | 31% | 1014.1 hPa | 0 mm | 3.13 m/s, 206° | 385 W/m² | - |
| 1778017141 | 26.11° C | 33% | 1013.9 hPa | 0 mm | 1.34 m/s, 222° | 410 W/m² | - |
| 1778016839 | 26.11° C | 34% | 1014 hPa | 0 mm | 0.89 m/s, 185° | 434 W/m² | - |
| 1778016534 | 26.11° C | 34% | 1014.2 hPa | 0 mm | 0.89 m/s, 243° | 440 W/m² | - |
| 1778016232 | 26.11° C | 32% | 1014.2 hPa | 0 mm | 4.02 m/s, 225° | 458 W/m² | - |
| 1778015928 | 25.56° C | 33% | 1014.1 hPa | 0 mm | 1.34 m/s, 182° | 363 W/m² | - |
| 1778015626 | 26.11° C | 33% | 1014.3 hPa | 0 mm | 1.79 m/s, 242° | 495 W/m² | - |
| 1778015322 | 26.11° C | 32% | 1014.1 hPa | 0 mm | 1.79 m/s, 185° | 512 W/m² | - |
| 1778015019 | 26.11° C | 32% | 1014.3 hPa | 0 mm | 2.68 m/s, 158° | 530 W/m² | - |
| 1778014715 | 26.11° C | 31% | 1014.3 hPa | 0 mm | 1.79 m/s, 187° | 544 W/m² | - |
| 1778014414 | 26.11° C | 31% | 1014.2 hPa | 0 mm | 2.68 m/s, 156° | 564 W/m² | - |
| 1778014110 | 26.11° C | 32% | 1014.4 hPa | 0 mm | 2.68 m/s, 187° | 582 W/m² | - |
* Rain latest hour (hover to see other rain measurements)
** Current wind speed in m/s (hover to see current wind gust speed)